Terminal Aerodrome Forecast
Issued by NWS Charleston, WV

Home | Current Version | Previous Version | Text Only | Print | Product List | Glossary On
Versions: 1 2 3 4 5 6 7 8 9 10 11 12 13 14 15 16 17 18 19
912
FTUS41 KRLX 100911 AAA
TAFBKW
TAF AMD
KBKW 100911Z 1009/1106 29010G18KT 5SM -SHSN OVC015
      TEMPO 1009/1013 2SM -SHSN OVC020
     FM102000 28013G20KT 3SM -SHSN BKN015=

USA.gov is the U.S. government's official web portal to all federal, state and local government web resources and services.